Regional Weather Roundup
Issued by NWS

Home | Current Version | Previous Version | Graphics & Text | Print | Product List | Glossary On
Versions: 1 2 3 4 5 6 7 8 9 10 11 12 13 14 15 16 17 18 19 20 21 22 23 24 25 26 27 28 29 30 31 32 33 34 35 36 37 38 39 40 41 42 43 44 45 46 47 48 49 50
000
ASUS43 KLOT 281006
RWRIL

ILLINOIS REGIONAL WEATHER ROUNDUP
NATIONAL WEATHER SERVICE CHICAGO/ROMEOVILLE IL
400 AM CST WED JAN 28 2015

NOTE: "FAIR" INDICATES FEW OR NO CLOUDS BELOW 12,000 FEET WITH NO
SIGNIFICANT WEATHER AND/OR OBSTRUCTIONS TO VISIBILITY.

* THESE STATIONS ARE NOT UNDER NWS QUALITY CONTROL. THEY ALSO MAY NOT
  REPORT WEATHER SUCH AS PRECIPITATION OR FOG.

ILZ001-002-007-009-015-016-024-281100-
NORTHWEST ILLINOIS

CITY           SKY/WX    TMP DP  RH WIND       PRES   REMARKS
MOLINE         CLOUDY    29  24  82 SE8       30.20F WCI  21
STERLING*      CLOUDY    27  21  80 SE6       30.22F WCI  20
SAVANNA*       CLOUDY    28  24  85 S12       30.21F WCI  18
$$

ILZ003-004-008-010-011-017-018-281100-
NORTH CENTRAL ILLINOIS

CITY           SKY/WX    TMP DP  RH WIND       PRES   REMARKS
ROCKFORD       PTCLDY    21  16  81 SE5       30.25F WCI  15
FREEPORT*      CLOUDY    23  19  87 CALM      30.23F
ROCHELLE*      PTCLDY    19  16  88 SE6       30.24S WCI  11
DE KALB*       PTCLDY    21  17  84 SE7       30.24S WCI  12
PERU*          PTCLDY    23  20  89 SE8       30.24F WCI  14
$$

ILZ005-006-012>014-019>023-281100-
NORTHEAST ILLINOIS

CITY           SKY/WX    TMP DP  RH WIND       PRES   REMARKS
CHICAGO-OHARE  MOCLDY    23  19  85 CALM      30.26S
CHICAGO-MIDWAY PTCLDY    25  19  78 S3        30.29R
AURORA         CLOUDY    23  17  78 SE6       30.25F WCI  16
LANSING*       MOCLDY    19  17  91 CALM      30.28F
JOLIET*        CLOUDY    22  20  91 CALM      30.27F
WAUKEGAN       PTCLDY    17  14  88 CALM      30.26S
DUPAGE AIRPORT CLOUDY    22  18  85 CALM      30.25S
KANKAKEE*      MOCLDY    19  17  93 E3        30.29S
WHEELING       PTCLDY    22  18  85 E3        30.29R
MORRIS*        CLOUDY    23  20  89 SE5       30.25F WCI  17
ROMEOVILLE*    CLOUDY    23  20  89 SE6       30.27S WCI  16
NORTHERLY ISL    N/A     26  19  75 S7          N/A  WCI  19
$$

LMZ740>746-281100-
SOUTHERN LAKE MICHIGAN

STATION/POSITION SKY/WX   TEMP    WIND        PRES    VSBY  WAVE
                          AIR SEA DIR/SP/G                  HT/PER
                          (F)     (DEG/KT/KT) (MB)    (MI)  (FT/S)
WAUKEGAN HARBOR            24        CALM       N/A
HARRISON CRIB              28     130/  3/  4   N/A
BURNHAM HARBOR             26     180/  6/  6   N/A
CALUMET HARBOR             24     160/  5/  6   N/A
MICHIGAN CITY              21     120/  7/  9   N/A
$$

ILZ025>027-034>036-040-047-049-050-058-095>099-281100-
WEST-CENTRAL ILLINOIS

CITY           SKY/WX    TMP DP  RH WIND       PRES   REMARKS
QUINCY         CLEAR     28  24  85 SE13      30.18F FOG     WCI  17
GALESBURG*     CLOUDY    28  26  89 SE7       30.21F WCI  21
MACOMB*        PTCLDY    28  26  96 SE9       30.23F FOG     WCI  19
JACKSONVILLE*  CLEAR     29  26  88 SE8       30.23F FOG     WCI  21
PITTSFIELD*    CLEAR     29  27  91 SE10      30.21F WCI  20
$$

ILZ028>032-037-038-041>044-048-051>054-059>061-281100-
CENTRAL ILLINOIS

CITY           SKY/WX    TMP DP  RH WIND       PRES   REMARKS
PONTIAC        PTCLDY    23  20  89 E7        30.25F WCI  15
BLOOMINGTON    CLEAR     23  19  85 SE8       30.25F WCI  14
DECATUR        CLEAR     23  19  85 SE7       30.25F WCI  15
PEORIA         PTCLDY    26  22  84 S5        30.24F WCI  20
LACON*         CLOUDY    28  24  85 SE7       30.24F WCI  21
LINCOLN*       CLEAR     25  22  89 SE3       30.27S
SPRINGFIELD    CLEAR     25  21  85 SE7       30.25F WCI  17
TAYLORVILLE    CLEAR     27  21  80 SE8       30.26S WCI  18
$$

ILZ033-039-045-046-055>057-062-063-281100-
EAST-CENTRAL ILLINOIS

CITY           SKY/WX    TMP DP  RH WIND       PRES   REMARKS
CHAMPAIGN      CLEAR     20  17  88 E8        30.26F FOG     WCI  10
DANVILLE*      CLEAR     18  17  93 CALM      30.25S
RANTOUL*       PTCLDY    22  18  86 SE6       30.26F WCI  14
MATTOON        CLEAR     21  15  78 SE5       30.25F WCI  15
PARIS*         PTCLDY    19  18  96 CALM      30.30S
$$

ILZ079-100>102-281100-
SOUTHWEST ILLINOIS

CITY           SKY/WX    TMP DP  RH WIND       PRES   REMARKS
ALTON          CLEAR     26  24  95 SE5       30.26S FOG     WCI  20
BELLEVILLE     CLEAR     25  25 100 S3        30.26S
CAHOKIA*       CLEAR     29  26  89 SE6       30.25F WCI  23
SPARTA*        PTCLDY    27  26  96 CALM      30.28R
$$

ILZ064>066-069>071-074>076-080>082-084>086-088>090-092>094-281100-
SOUTH-CENTRAL ILLINOIS

CITY           SKY/WX    TMP DP  RH WIND       PRES   REMARKS
CARBONDALE     CLEAR     25  23  92 CALM      30.28S FOG
CAIRO*         CLEAR     29  28  94 E5        30.27F WCI  24
EFFINGHAM*     CLEAR     26  18  72 E7        30.29S WCI  18
MARION         CLEAR     28  27  93 CALM      30.28S
MT. VERNON     CLEAR     25  18  74 CALM      30.27S
CENTRALIA*     CLEAR     26  23  87 CALM      30.27S
SALEM*         CLEAR     28  24  85 CALM      30.27R
METROPOLIS*    CLEAR     25  25 100 CALM      30.27R FOG
$$

ILZ067-068-072-073-078-083-087-091-281100-
SOUTHEAST ILLINOIS

CITY           SKY/WX    TMP DP  RH WIND       PRES   REMARKS
LAWRENCEVILLE  CLEAR     24  20  84 NE6       30.31S WCI  17
FLORA*         CLEAR     25  23  91 E6        30.29R WCI  18
FAIRFIELD*     CLEAR     26  23  90 E5        30.27F WCI  20
HARRISBURG*    CLEAR     29  28  95 E6        30.28F WCI  23
ROBINSON*      CLEAR     20  20  97 E5        30.32R FOG     WCI  14
CARMI*         CLEAR     27  26  97 E6        30.29S WCI  20
$$

ABBREVIATIONS USED IN REMARKS
   TC - TEMPERATURE IN CELSIUS
  WCI - WIND CHILL INDEX
   HX - HEAT INDEX
  VSB - VISIBILITY
$$




USA.gov is the U.S. government's official web portal to all federal, state and local government web resources and services.